Time,TemperatureF,DewpointF,PressureIn,WindDirection,WindDirectionDegrees,WindSpeedMPH,WindSpeedGustMPH,Humidity,HourlyPrecipIn,Conditions,Clouds,dailyrainin,SolarRadiationWatts/m^2,SoftwareType,DateUTC
2013-02-03 00:03:00,34.0,24.0,-100.00,SW,232,4.0,21.0,67,0.00,,,0.00,0.000000,,2013-02-03 05:03:00,
2013-02-03 00:32:00,33.0,22.0,-100.00,NE,54,6.0,16.0,63,0.00,,,0.00,0.000000,,2013-02-03 05:32:00,
2013-02-03 00:42:00,33.0,22.0,-100.00,NE,54,6.0,16.0,63,0.00,,,0.00,0.000000,,2013-02-03 05:42:00,
2013-02-03 00:52:00,33.0,22.0,-100.00,NE,54,6.0,16.0,63,0.00,,,0.00,0.000000,,2013-02-03 05:52:00,
2013-02-03 01:02:00,33.0,22.0,-100.00,NE,54,6.0,16.0,63,0.00,,,0.00,0.000000,,2013-02-03 06:02:00,
2013-02-03 01:21:00,34.0,21.0,-100.00,East,85,7.0,17.0,59,0.00,,,0.00,0.000000,,2013-02-03 06:21:00,
2013-02-03 01:32:00,34.0,21.0,-100.00,East,85,7.0,17.0,59,0.00,,,0.00,0.000000,,2013-02-03 06:32:00,
2013-02-03 01:42:00,34.0,21.0,-100.00,East,85,7.0,17.0,59,0.00,,,0.00,0.000000,,2013-02-03 06:42:00,
2013-02-03 01:52:00,34.0,21.0,-100.00,East,85,7.0,17.0,59,0.00,,,0.00,0.000000,,2013-02-03 06:52:00,
2013-02-03 02:02:00,34.0,21.0,-100.00,East,85,7.0,17.0,59,0.00,,,0.00,0.000000,,2013-02-03 07:02:00,
2013-02-03 02:32:00,33.0,19.0,-100.00,NE,36,7.0,21.0,56,0.00,,,0.00,0.000000,,2013-02-03 07:32:00,
2013-02-03 02:42:00,33.0,19.0,-100.00,NE,36,7.0,21.0,56,0.00,,,0.00,0.000000,,2013-02-03 07:42:00,
2013-02-03 02:52:00,33.0,19.0,-100.00,NE,36,7.0,21.0,56,0.00,,,0.00,0.000000,,2013-02-03 07:52:00,
2013-02-03 03:02:00,33.0,19.0,-100.00,NE,36,7.0,21.0,56,0.00,,,0.00,0.000000,,2013-02-03 08:02:00,
2013-02-03 03:32:00,31.0,21.0,-100.00,SE,145,7.0,24.0,65,0.00,,,0.00,0.000000,,2013-02-03 08:32:00,
2013-02-03 03:42:00,31.0,21.0,-100.00,SE,145,7.0,24.0,65,0.00,,,0.00,0.000000,,2013-02-03 08:42:00,
2013-02-03 03:52:00,31.0,21.0,-100.00,SE,145,7.0,24.0,65,0.00,,,0.00,0.000000,,2013-02-03 08:52:00,
2013-02-03 04:03:00,31.0,21.0,-100.00,SE,145,7.0,24.0,65,0.00,,,0.00,0.000000,,2013-02-03 09:03:00,
2013-02-03 04:32:00,30.0,17.0,-100.00,East,101,10.0,25.0,58,0.00,,,0.00,0.000000,,2013-02-03 09:32:00,
2013-02-03 04:42:00,30.0,17.0,-100.00,East,101,10.0,25.0,58,0.00,,,0.00,0.000000,,2013-02-03 09:42:00,
2013-02-03 04:52:00,30.0,17.0,-100.00,East,101,10.0,25.0,58,0.00,,,0.00,0.000000,,2013-02-03 09:52:00,
2013-02-03 05:01:00,30.0,17.0,-100.00,East,101,10.0,25.0,58,0.00,,,0.00,0.000000,,2013-02-03 10:01:00,
2013-02-03 05:32:00,30.0,18.0,-100.00,NNE,13,7.0,28.0,60,0.00,,,0.00,0.000000,,2013-02-03 10:32:00,
2013-02-03 05:42:00,30.0,18.0,-100.00,NNE,13,7.0,28.0,60,0.00,,,0.00,0.000000,,2013-02-03 10:42:00,
2013-02-03 05:53:00,30.0,18.0,-100.00,NNE,13,7.0,28.0,60,0.00,,,0.00,0.000000,,2013-02-03 10:53:00,
2013-02-03 06:02:00,30.0,18.0,-100.00,NNE,13,7.0,28.0,60,0.00,,,0.00,0.000000,,2013-02-03 11:02:00,
2013-02-03 06:32:00,31.0,19.0,-100.00,NE,49,9.0,26.0,61,0.00,,,0.00,0.000000,,2013-02-03 11:32:00,
2013-02-03 06:42:00,31.0,19.0,-100.00,NE,49,9.0,26.0,61,0.00,,,0.00,0.000000,,2013-02-03 11:42:00,
2013-02-03 06:52:00,31.0,19.0,-100.00,NE,49,9.0,26.0,61,0.00,,,0.00,0.000000,,2013-02-03 11:52:00,
2013-02-03 07:02:00,31.0,19.0,-100.00,NE,49,9.0,26.0,61,0.00,,,0.00,0.000000,,2013-02-03 12:02:00,
2013-02-03 07:33:00,32.0,18.0,-100.00,ESE,117,5.0,28.0,56,0.00,,,0.00,0.000000,,2013-02-03 12:33:00,
2013-02-03 07:42:00,32.0,18.0,-100.00,ESE,117,5.0,28.0,56,0.00,,,0.00,0.000000,,2013-02-03 12:42:00,
2013-02-03 07:53:00,32.0,18.0,-100.00,ESE,117,5.0,28.0,56,0.00,,,0.00,0.000000,,2013-02-03 12:53:00,
2013-02-03 08:03:00,32.0,18.0,-100.00,ESE,117,5.0,28.0,56,0.00,,,0.00,0.000000,,2013-02-03 13:03:00,
2013-02-03 08:32:00,34.0,19.0,-100.00,SE,142,6.0,16.0,54,0.00,,,0.00,17.000000,,2013-02-03 13:32:00,
2013-02-03 08:42:00,34.0,19.0,-100.00,SE,142,6.0,16.0,54,0.00,,,0.00,17.000000,,2013-02-03 13:42:00,
2013-02-03 08:52:00,34.0,19.0,-100.00,SE,142,6.0,16.0,54,0.00,,,0.00,17.000000,,2013-02-03 13:52:00,
2013-02-03 09:03:00,34.0,19.0,-100.00,SE,142,6.0,16.0,54,0.00,,,0.00,17.000000,,2013-02-03 14:03:00,
2013-02-03 09:32:00,33.0,25.0,-100.00,SSW,211,5.0,14.0,73,0.00,,,0.00,84.000000,,2013-02-03 14:32:00,
2013-02-03 09:42:00,33.0,25.0,-100.00,SSW,211,5.0,14.0,73,0.00,,,0.00,84.000000,,2013-02-03 14:42:00,
2013-02-03 09:52:00,33.0,25.0,-100.00,SSW,211,5.0,14.0,73,0.00,,,0.00,84.000000,,2013-02-03 14:52:00,
2013-02-03 10:03:00,33.0,25.0,-100.00,SSW,211,5.0,14.0,73,0.00,,,0.00,84.000000,,2013-02-03 15:03:00,
2013-02-03 10:33:00,35.0,26.0,-100.00,South,188,6.0,13.0,68,0.00,,,0.00,166.000000,,2013-02-03 15:33:00,
2013-02-03 10:42:00,35.0,26.0,-100.00,South,188,6.0,13.0,68,0.00,,,0.00,166.000000,,2013-02-03 15:42:00,
2013-02-03 10:52:00,35.0,26.0,-100.00,South,188,6.0,13.0,68,0.00,,,0.00,166.000000,,2013-02-03 15:52:00,
2013-02-03 11:03:00,35.0,26.0,-100.00,South,188,6.0,13.0,68,0.00,,,0.00,166.000000,,2013-02-03 16:03:00,
2013-02-03 11:33:00,40.0,24.0,-100.00,SSE,149,6.0,21.0,52,0.00,,,0.00,325.000000,,2013-02-03 16:33:00,
2013-02-03 11:42:00,40.0,24.0,-100.00,SSE,149,6.0,21.0,52,0.00,,,0.00,325.000000,,2013-02-03 16:42:00,
2013-02-03 11:52:00,40.0,24.0,-100.00,SSE,149,6.0,21.0,52,0.00,,,0.00,325.000000,,2013-02-03 16:52:00,
2013-02-03 12:03:00,40.0,24.0,-100.00,SSE,149,6.0,21.0,52,0.00,,,0.00,325.000000,,2013-02-03 17:03:00,
2013-02-03 12:32:00,42.0,22.0,-100.00,SW,235,6.0,22.0,45,0.00,,,0.00,530.000000,,2013-02-03 17:32:00,
2013-02-03 12:42:00,42.0,22.0,-100.00,SW,235,6.0,22.0,45,0.00,,,0.00,530.000000,,2013-02-03 17:42:00,
2013-02-03 12:52:00,42.0,22.0,-100.00,SW,235,6.0,22.0,45,0.00,,,0.00,530.000000,,2013-02-03 17:52:00,
2013-02-03 13:03:00,42.0,22.0,-100.00,SW,235,6.0,22.0,45,0.00,,,0.00,530.000000,,2013-02-03 18:03:00,
2013-02-03 13:23:00,41.0,19.0,-100.00,ENE,66,9.0,23.0,40,0.00,,,0.00,735.000000,,2013-02-03 18:23:00,
2013-02-03 13:33:00,41.0,19.0,-100.00,ENE,66,9.0,23.0,40,0.00,,,0.00,735.000000,,2013-02-03 18:33:00,
2013-02-03 13:42:00,41.0,19.0,-100.00,ENE,66,9.0,23.0,40,0.00,,,0.00,735.000000,,2013-02-03 18:42:00,
2013-02-03 13:52:00,41.0,19.0,-100.00,ENE,66,9.0,23.0,40,0.00,,,0.00,735.000000,,2013-02-03 18:52:00,
2013-02-03 14:02:00,41.0,19.0,-100.00,ENE,66,9.0,23.0,40,0.00,,,0.00,735.000000,,2013-02-03 19:02:00,
2013-02-03 14:33:00,40.0,18.0,-100.00,ENE,62,10.0,29.0,40,0.00,,,0.00,662.000000,,2013-02-03 19:33:00,
2013-02-03 14:42:00,40.0,18.0,-100.00,ENE,62,10.0,29.0,40,0.00,,,0.00,662.000000,,2013-02-03 19:42:00,
2013-02-03 14:52:00,40.0,18.0,-100.00,ENE,62,10.0,29.0,40,0.00,,,0.00,662.000000,,2013-02-03 19:52:00,
2013-02-03 15:02:00,40.0,18.0,-100.00,ENE,62,10.0,29.0,40,0.00,,,0.00,662.000000,,2013-02-03 20:02:00,
2013-02-03 15:33:00,40.0,16.0,-100.00,East,100,9.0,26.0,38,0.00,,,0.00,541.000000,,2013-02-03 20:33:00,
2013-02-03 15:42:00,40.0,16.0,-100.00,East,100,9.0,26.0,38,0.00,,,0.00,541.000000,,2013-02-03 20:42:00,
2013-02-03 15:52:00,40.0,16.0,-100.00,East,100,9.0,26.0,38,0.00,,,0.00,541.000000,,2013-02-03 20:52:00,
2013-02-03 16:03:00,40.0,16.0,-100.00,East,100,9.0,26.0,38,0.00,,,0.00,541.000000,,2013-02-03 21:03:00,
2013-02-03 16:33:00,39.0,17.0,-100.00,East,81,10.0,24.0,41,0.00,,,0.00,448.000000,,2013-02-03 21:33:00,
2013-02-03 16:42:00,39.0,17.0,-100.00,East,81,10.0,24.0,41,0.00,,,0.00,448.000000,,2013-02-03 21:42:00,
2013-02-03 16:52:00,39.0,17.0,-100.00,East,81,10.0,24.0,41,0.00,,,0.00,448.000000,,2013-02-03 21:52:00,
2013-02-03 17:02:00,39.0,17.0,-100.00,East,81,10.0,24.0,41,0.00,,,0.00,448.000000,,2013-02-03 22:02:00,
2013-02-03 17:32:00,36.0,16.0,-100.00,NE,50,10.0,21.0,44,0.00,,,0.00,229.000000,,2013-02-03 22:32:00,
2013-02-03 17:42:00,36.0,16.0,-100.00,NE,50,10.0,21.0,44,0.00,,,0.00,229.000000,,2013-02-03 22:42:00,
2013-02-03 17:52:00,36.0,16.0,-100.00,NE,50,10.0,21.0,44,0.00,,,0.00,229.000000,,2013-02-03 22:52:00,
2013-02-03 18:01:00,36.0,16.0,-100.00,NE,50,10.0,21.0,44,0.00,,,0.00,229.000000,,2013-02-03 23:01:00,
2013-02-03 18:33:00,34.0,16.0,-100.00,ENE,74,7.0,22.0,47,0.00,,,0.00,37.000000,,2013-02-03 23:33:00,
2013-02-03 18:42:00,34.0,16.0,-100.00,ENE,74,7.0,22.0,47,0.00,,,0.00,37.000000,,2013-02-03 23:42:00,
2013-02-03 18:52:00,34.0,16.0,-100.00,ENE,74,7.0,22.0,47,0.00,,,0.00,37.000000,,2013-02-03 23:52:00,
2013-02-03 19:02:00,34.0,16.0,-100.00,ENE,74,7.0,22.0,47,0.00,,,0.00,37.000000,,2013-02-04 00:02:00,
2013-02-03 19:32:00,33.0,15.0,-100.00,East,89,8.0,22.0,48,0.00,,,0.00,1.000000,,2013-02-04 00:32:00,
2013-02-03 19:42:00,33.0,15.0,-100.00,East,89,8.0,22.0,48,0.00,,,0.00,1.000000,,2013-02-04 00:42:00,
2013-02-03 19:52:00,33.0,15.0,-100.00,East,89,8.0,22.0,48,0.00,,,0.00,1.000000,,2013-02-04 00:52:00,
2013-02-03 20:01:00,33.0,15.0,-100.00,East,89,8.0,22.0,48,0.00,,,0.00,1.000000,,2013-02-04 01:01:00,
2013-02-03 20:22:00,33.0,17.0,-100.00,ENE,77,10.0,22.0,51,0.00,,,0.00,0.000000,,2013-02-04 01:22:00,
2013-02-03 20:32:00,33.0,17.0,-100.00,ENE,77,10.0,22.0,51,0.00,,,0.00,0.000000,,2013-02-04 01:32:00,
2013-02-03 20:42:00,33.0,17.0,-100.00,ENE,77,10.0,22.0,51,0.00,,,0.00,0.000000,,2013-02-04 01:42:00,
2013-02-03 20:52:00,33.0,17.0,-100.00,ENE,77,10.0,22.0,51,0.00,,,0.00,0.000000,,2013-02-04 01:52:00,
2013-02-03 21:02:00,33.0,17.0,-100.00,ENE,77,10.0,22.0,51,0.00,,,0.00,0.000000,,2013-02-04 02:02:00,
2013-02-03 21:22:00,33.0,13.0,-100.00,East,87,11.0,31.0,44,0.00,,,0.00,0.000000,,2013-02-04 02:22:00,
2013-02-03 21:32:00,33.0,13.0,-100.00,East,87,11.0,31.0,44,0.00,,,0.00,0.000000,,2013-02-04 02:32:00,
2013-02-03 21:42:00,33.0,13.0,-100.00,East,87,11.0,31.0,44,0.00,,,0.00,0.000000,,2013-02-04 02:42:00,
2013-02-03 21:52:00,33.0,13.0,-100.00,East,87,11.0,31.0,44,0.00,,,0.00,0.000000,,2013-02-04 02:52:00,
2013-02-03 22:02:00,33.0,13.0,-100.00,East,87,11.0,31.0,44,0.00,,,0.00,0.000000,,2013-02-04 03:02:00,
2013-02-03 22:32:00,32.0,13.0,-100.00,NE,54,8.0,21.0,45,0.00,,,0.00,0.000000,,2013-02-04 03:32:00,
2013-02-03 22:42:00,32.0,13.0,-100.00,NE,54,8.0,21.0,45,0.00,,,0.00,0.000000,,2013-02-04 03:42:00,
2013-02-03 22:52:00,32.0,13.0,-100.00,NE,54,8.0,21.0,45,0.00,,,0.00,0.000000,,2013-02-04 03:52:00,
2013-02-03 23:02:00,32.0,13.0,-100.00,NE,54,8.0,21.0,45,0.00,,,0.00,0.000000,,2013-02-04 04:02:00,
2013-02-03 23:32:00,28.0,15.0,-100.00,East,86,5.0,16.0,58,0.00,,,-99.99,0.000000,,2013-02-04 04:32:00,
2013-02-03 23:42:00,28.0,15.0,-100.00,East,86,5.0,16.0,58,0.00,,,-99.99,0.000000,,2013-02-04 04:42:00,
2013-02-03 23:52:00,28.0,15.0,-100.00,East,86,5.0,16.0,58,0.00,,,-99.99,0.000000,,2013-02-04 04:52:00,